Regional Weather Roundup
Issued by NWS

Home | Current Version | Previous Version | Text Only | Print | Product List | Glossary On
Versions: 1 2 3 4 5 6 7 8 9 10 11 12 13 14 15 16 17 18 19 20 21 22 23 24 25 26 27 28 29 30 31 32 33 34 35 36 37 38 39 40 41 42 43 44 45 46 47 48 49 50
000
ASUS44 KLIX 231710
RWRLA
LOUISIANA WEATHER ROUNDUP
NATIONAL WEATHER SERVICE NEW ORLEANS LA
1200 PM CDT SAT AUG 23 2014

NOTE: "FAIR" INDICATES FEW OR NO CLOUDS BELOW 12,000 FEET WITH NO
      SIGNIFICANT WEATHER AND/OR OBSTRUCTIONS TO VISIBILITY.
      SKY/WX - SKY CONDITION AND SIGNIFICANT WEATHER.
      TMP - AIR TEMPERATURE.    DP   - DEWPOINT TEMPERATURE.
      RH  - RELATIVE HUMIDITY.  PRES - PRESSURE.
      HX  - HEAT INDEX.         WCI  - WIND CHILL INDEX.

*  THESE STATIONS ARE NOT NWS OR FAA STATIONS AND ARE NOT UNDER
   NWS QUALITY CONTROL.

LAZ040-048-061>063-065-066-069-231800-
SOUTHEAST LOUISIANA

CITY           SKY/WX    TMP DP  RH WIND       PRES   REMARKS
N.O. AUDUBON     N/A     95  77  57 MISG        N/A  HX 109
N.O. INTL ARPT MOSUNNY   91  75  59 N9        30.03F HX 101
N.O. LAKEFRONT SUNNY     89  78  70 NW8       30.03F HX 103
N.O. DOWNTOWN* FAIR      91  73  55 NE6       30.03F HX 100
SLIDELL        MOSUNNY   93  74  53 N6        30.02F HX 103
BATON ROUGE    MOSUNNY   90  75  61 NW6       30.04F HX 100
BOOTHVILLE     SUNNY     90  79  70 NW8       30.04S HX 106
BELLE CHASSE   MOSUNNY   93  72  50 VRB3      30.02F HX 101
BOGALUSA*      PTSUNNY   93  74  53 N7        30.05S HX 102
GALLIANO*      NOT AVBL
NEW ROADS*     PTSUNNY   88  76  67 N6        30.05F HX 100
GONZALES*      PTSUNNY   90  77  65 NW5       30.03F HX 103
HAMMOND*       MOSUNNY   95  72  46 N3        30.05S HX 103
HOUMA*         MOSUNNY   90  72  55 N5        30.04S HX  96
PORT FOURCHON* SUNNY     91  75  59 NE5G13    30.05F HX 102

$$

LAZ041-044-053-054-231800-
SOUTHWEST LOUISIANA

CITY           SKY/WX    TMP DP  RH WIND       PRES   REMARKS
LAKE CHARLES   MOSUNNY   90  75  61 W5        30.04F HX 100
LAFAYETTE      PTSUNNY   89  75  63 NW5       30.05S HX  99
PATTERSON      MOSUNNY   91  79  66 NE5         N/A  HX 107
SALT POINT       N/A     91  79  67 VRB3      30.03F HX 107
NEW IBERIA     MOSUNNY   91  76  61 N3        30.05F HX 103
CHENAULT AIRPK MOSUNNY   90  73  58 CALM      30.05F HX  98

$$

LAZ027-028-231800-
CENTRAL LOUISIANA

CITY           SKY/WX    TMP DP  RH WIND       PRES   REMARKS
FORT POLK      MOSUNNY   87  72  60 CALM      30.05F
ALEXANDRIA INT MOSUNNY   90  74  59 VRB5      30.03F HX  99
ALEXANDRIA     SUNNY     92  75  57 SW6       30.05F HX 103

$$

LAZ001-002-231800-
NORTHWEST LOUISIANA

CITY           SKY/WX    TMP DP  RH WIND       PRES   REMARKS
SHREVEPORT     SUNNY     92  67  43 VRB6      30.04S HX  95
BARKSDALE AFB  SUNNY     92  66  41 SW8       30.04S HX  95
DTN SHREVEPORT SUNNY     91  67  44 VRB6      30.04S

$$

LAZ014-016-231800-
NORTHEAST LOUISIANA

CITY           SKY/WX    TMP DP  RH WIND       PRES   REMARKS
MONROE         SUNNY     91  72  53 VRB5      30.05S HX  98
TALLULAH       SUNNY     93  71  48 VRB3      30.04F HX 100

$$




USA.gov is the U.S. government's official web portal to all federal, state and local government web resources and services.